Location: Kimberly
(42.5380°N, 114.3640°W)
Time: 21:54:41
(UTC-06:00)

Tianhe-1 - Visible Passes

Search period start: 16 June 2021 00:00
Search period end: 26 June 2021 00:00
Orbit: 374 x 387 km, 41.5° (Epoch: 16 June)

Date Brightness Start Highest point End Pass type
(mag) Time Alt. Az. Time Alt. Az. Time Alt. Az.
18 Jun 3.5 04:55:04 10° S 04:56:27 12° SSE 04:57:51 10° ESE visible
20 Jun 2.8 04:30:14 17° S 04:31:07 19° SSE 04:33:26 10° ESE visible
21 Jun 1.7 05:04:03 13° SW 05:06:37 42° SSE 05:09:38 10° E visible
22 Jun 2.2 04:05:44 28° SSE 04:05:47 28° SSE 04:08:33 10° E visible
23 Jun 1.2 04:39:30 21° WSW 04:41:23 56° SSE 04:44:29 10° E visible
24 Jun 2.0 03:41:10 35° SE 03:41:10 35° SE 03:43:28 10° E visible
24 Jun 1.0 05:13:58 10° W 05:17:06 74° S 05:20:14 10° E visible
25 Jun 0.9 04:14:58 34° WSW 04:16:09 68° S 04:19:16 10° E visible
